Weather in Volgodonskoy

Russia / Volgograd Oblast     48°38′07″N   43°43′17″E
temp.,
°C
wind,
m/s
gust,
m/s
humid.,
%
clouds,
%
prec.,
mm/h
press.,
hPa
HPBL,
m
1 august, sun
sun100:00+25sw11280 0.0 101012
03:00+23ene33320 0.0 101123
06:00+25ese22270 0.0 101159
09:00+32se22180 0.0 1011724
12:00+36w11160 0.0 10113655
15:00+37nw22143 0.0 10094026
18:00+36nne4414100 0.0 10091443
21:00+30nne112132 0.0 101015
2 august, mon
mon200:00+27ene33234 0.0 101021
03:00+26ne12285 0.0 101112
06:00+27e22261 0.0 101133
09:00+34sse23170 0.0 1011743
12:00+38sse341611 0.0 10104026
15:00+34se2426100 0.2 1009182
18:00+29ne6103443 0.6 1010189
21:00+29se8133886 0.9 1010286
3 august, tue
tue300:00+28ssw233523 0.0 101027
03:00+25sse33411 0.0 101021
06:00+26sse23420 0.0 101070
09:00+35s452151 0.0 1010716
12:00+38ssw661624 0.0 10093644
15:00+39ssw66133 0.0 10084135
18:00+38s57120 0.0 10073276
21:00+30wsw342288 0.0 100856
4 august, wed
wed400:00+28ne363287 0.0 1009124
03:00+24nnw595694 0.2 1010266
06:00+22n597086 0.2 1011282
09:00+28n554797 0.2 1012733
12:00+32nnw553682 0.0 10131699
15:00+33nw56250 0.0 10122656
18:00+32nnw542569 0.0 10131982
21:00+26n612385 0.0 1015379
5 august, thu
thu500:00+23nne511445 0.0 1015326
03:00+21nne4952100 0.0 1016173
06:00+22nne375122 0.0 1016212
09:00+28nne56330 0.0 10171800
12:00+31nne54240 0.0 10162569
15:00+32nne4421100 0.0 10152904
18:00+31ne442175 0.0 10152462
21:00+25ene33290 0.0 101517